Precipitable_Water
0.93 0.80 0.89 0.96 1.10 1.16 1.16 1.15 1.17 1.23 1.24 1.18 1.13 1.07 1.09 1.12 1.20 1.24 1.28 1.35 1.24 1.26 1.19 1.03 1.09 1.18 1.12 1.08 0.93 0.81 0.90 0.87 0.85 0.81 0.83 0.89 0.99 1.03 1.08 1.02 0.92 0.87 0.82
0.76 0.83 0.90 0.98 1.10 1.18 1.20 1.16 1.17 1.25 1.25 1.18 1.11 1.06 1.10 1.12 1.14 1.18 1.25 1.23 1.19 1.20 1.15 1.01 0.98 0.91 0.88 0.71 0.62 0.63 0.72 0.76 0.81 0.81 0.85 0.89 0.91 0.93 0.93 0.92 0.90 0.91 0.90
0.66 0.83 0.92 1.01 1.10 1.18 1.21 1.16 1.16 1.22 1.22 1.12 1.09 1.05 1.07 1.08 1.12 1.18 1.20 1.18 1.11 1.16 1.05 1.01 1.01 0.94 0.70 0.65 0.66 0.72 0.78 0.79 0.77 0.72 0.76 0.83 0.89 0.89 0.90 0.82 0.83 0.83 0.84
0.68 0.82 0.92 1.03 1.12 1.16 1.20 1.17 1.21 1.20 1.17 1.07 1.06 1.03 1.05 1.06 1.08 1.11 1.12 1.14 1.08 1.04 0.99 1.06 0.98 0.89 0.76 0.73 0.85 0.94 0.93 0.92 0.91 0.86 0.83 0.70 0.81 0.85 0.82 0.82 0.85 0.88 0.90
0.70 0.79 0.89 0.99 1.10 1.14 1.19 1.20 1.23 1.21 1.15 1.04 1.01 0.99 1.00 1.04 1.04 1.07 1.08 1.07 1.06 0.99 0.95 1.04 0.93 0.88 0.78 0.78 0.96 1.03 1.06 1.06 1.04 1.03 0.93 0.81 0.68 0.76 0.82 0.86 0.90 0.92 0.89
0.78 0.80 0.81 0.92 1.03 1.14 1.19 1.21 1.23 1.20 1.13 1.05 0.98 0.94 0.95 0.98 0.99 1.03 1.07 1.08 1.06 0.99 0.97 0.98 0.90 0.81 0.71 0.66 0.77 0.83 0.89 0.92 0.95 0.99 0.98 0.99 0.72 0.78 0.87 0.90 0.94 0.92 0.88
0.84 0.87 0.85 0.81 0.94 1.07 1.17 1.21 1.21 1.20 1.13 1.05 1.01 0.95 0.94 0.96 0.96 0.97 1.02 1.08 1.05 0.98 0.93 0.92 0.86 0.78 0.70 0.62 0.64 0.75 0.82 0.92 0.97 1.00 1.07 0.98 0.95 0.87 0.92 0.93 0.90 0.89 0.91
0.85 0.88 0.94 0.92 0.87 0.96 1.04 1.11 1.17 1.19 1.14 1.05 1.02 0.99 0.98 0.96 0.95 0.94 0.94 0.98 1.01 0.95 0.88 0.82 0.77 0.72 0.69 0.64 0.62 0.79 0.92 0.97 1.02 1.06 1.13 1.05 0.87 0.87 0.90 0.89 0.89 0.93 0.97
0.98 0.87 0.94 1.00 1.02 1.00 0.98 1.00 1.05 1.12 1.14 1.09 1.03 1.01 0.99 0.96 0.93 0.93 0.92 0.89 0.90 0.89 0.82 0.77 0.73 0.71 0.68 0.64 0.62 0.76 0.87 0.97 1.10 1.16 1.14 1.13 0.90 0.83 0.87 0.89 0.91 0.92 0.92
1.06 0.91 0.92 0.99 1.03 1.03 1.03 1.00 0.99 1.01 1.04 1.05 1.06 1.02 0.98 0.95 0.92 0.89 0.90 0.88 0.85 0.83 0.78 0.76 0.73 0.71 0.71 0.73 0.68 0.66 0.80 0.94 1.16 1.23 1.23 1.20 1.12 0.99 0.87 0.86 0.87 0.89 0.92
1.10 1.02 0.91 0.96 1.01 1.02 1.04 1.06 1.03 0.97 0.96 0.97 0.99 1.00 0.94 0.91 0.87 0.88 0.87 0.85 0.83 0.82 0.77 0.75 0.73 0.75 0.76 0.77 0.74 0.68 0.70 1.03 1.20 1.26 1.29 1.22 1.23 1.17 0.98 0.93 0.93 0.93 0.94
1.21 1.03 0.94 0.96 0.98 1.05 1.04 1.05 1.02 1.00 0.95 0.94 0.92 0.92 0.88 0.85 0.87 0.85 0.86 0.86 0.83 0.81 0.78 0.77 0.74 0.76 0.79 0.78 0.76 0.76 0.73 0.96 1.13 1.23 1.27 1.26 1.28 1.26 1.17 1.06 1.06 1.07 1.06
1.35 1.37 1.23 0.93 1.03 1.01 1.02 1.05 1.00 0.96 0.92 0.93 0.94 0.89 0.88 0.81 0.86 0.92 0.94 0.93 0.89 0.84 0.78 0.77 0.77 0.74 0.75 0.77 0.76 0.83 0.87 0.86 0.92 1.19 1.28 1.31 1.32 1.30 1.27 1.15 1.17 1.17 1.15
1.38 1.43 1.45 1.34 1.04 1.05 1.14 1.08 1.09 1.05 1.00 0.92 0.88 0.95 0.93 0.84 0.84 0.87 0.91 0.92 0.94 0.90 0.77 0.74 0.74 0.78 0.77 0.79 0.78 0.81 0.89 0.92 0.93 1.00 1.26 1.30 1.32 1.33 1.31 1.22 1.15 1.14 1.12
1.32 1.49 1.52 1.51 1.36 1.22 1.08 1.17 1.16 1.15 1.11 1.03 1.06 0.98 0.94 0.92 0.90 0.98 0.93 0.93 0.93 1.00 0.96 0.74 0.72 0.74 0.76 0.78 0.79 0.80 0.89 0.95 1.00 1.03 1.15 1.26 1.29 1.31 1.32 1.28 1.19 1.12 1.07
1.23 1.42 1.60 1.59 1.55 1.46 1.28 1.22 1.25 1.23 1.21 1.17 1.15 1.15 1.14 1.07 0.94 0.98 1.03 1.02 0.97 0.99 0.96 0.89 0.75 0.75 0.76 0.81 0.80 0.83 0.79 0.92 0.96 1.00 1.03 1.20 1.22 1.26 1.28 1.26 1.20 1.13 1.07
1.16 1.26 1.35 1.50 1.71 1.62 1.46 1.30 1.32 1.40 1.32 1.24 1.21 1.24 1.21 1.17 1.11 1.06 1.09 1.06 1.05 1.04 0.99 0.92 0.86 0.85 0.85 0.85 0.85 0.86 0.87 0.84 0.84 0.88 0.88 0.96 1.13 1.20 1.21 1.18 1.14 1.12 1.08
1.11 1.19 1.27 1.35 1.48 1.61 1.71 1.59 1.40 1.34 1.35 1.36 1.31 1.25 1.28 1.28 1.23 1.14 1.11 1.18 1.17 1.10 1.04 0.99 0.91 0.84 0.80 0.80 0.79 0.84 0.90 0.91 0.90 0.92 0.96 0.97 0.91 0.98 1.05 1.08 1.07 1.04 1.01
1.00 1.14 1.21 1.26 1.30 1.39 1.54 1.68 1.64 1.55 1.60 1.39 1.35 1.36 1.35 1.33 1.33 1.27 1.19 1.15 1.17 1.17 1.12 1.07 1.01 0.98 0.88 0.83 0.81 0.81 0.83 0.85 0.90 0.96 0.96 0.97 0.98 0.96 0.93 0.90 0.87 0.88 0.91
0.75 0.96 1.08 1.18 1.21 1.20 1.27 1.40 1.61 1.60 1.46 1.61 1.59 1.52 1.44 1.33 1.35 1.35 1.31 1.20 1.21 1.16 1.07 1.07 1.01 1.02 0.99 0.92 0.90 0.85 0.82 0.82 0.86 0.89 0.95 0.99 0.99 0.98 1.00 0.98 0.95 0.91 0.90
0.54 0.55 0.75 0.91 1.02 1.12 1.15 1.13 1.24 1.41 1.56 1.62 1.52 1.56 1.54 1.51 1.52 1.47 1.28 1.38 1.31 1.18 1.17 1.14 1.07 0.99 0.93 0.99 0.92 0.84 0.84 0.86 0.86 0.87 0.93 0.96 0.96 0.97 0.97 0.94 0.93 0.90 0.87
0.48 0.49 0.48 0.49 0.55 0.61 0.72 0.89 1.00 1.03 1.17 1.38 1.43 1.59 1.47 1.61 1.57 1.53 1.56 1.43 1.24 1.25 1.22 1.18 1.17 1.06 1.00 0.99 0.85 0.83 0.66 0.71 0.75 0.77 0.82 0.86 0.87 0.90 0.87 0.86 0.88 0.89 0.90
0.46 0.47 0.48 0.47 0.46 0.48 0.51 0.54 0.61 0.72 0.80 0.88 1.03 1.28 1.40 1.50 1.51 1.52 1.46 1.37 1.46 1.47 1.28 1.24 1.20 1.09 0.97 1.02 1.01 0.88 0.69 0.57 0.62 0.68 0.68 0.69 0.72 0.78 0.83 0.86 0.91 0.93 0.93
0.45 0.45 0.45 0.43 0.42 0.44 0.45 0.44 0.42 0.45 0.47 0.57 0.69 0.88 0.96 1.30 1.40 1.54 1.53 1.37 1.52 1.35 1.36 1.45 1.34 1.24 1.13 0.93 1.00 1.04 0.99 0.85 0.61 0.52 0.71 0.78 0.81 0.81 0.85 0.93 0.95 0.94 0.92
0.37 0.34 0.37 0.37 0.33 0.33 0.33 0.36 0.39 0.40 0.45 0.49 0.52 0.55 0.66 0.82 0.89 1.19 1.31 1.52 1.43 1.41 1.50 1.32 1.45 1.42 1.31 1.18 1.03 0.96 0.94 0.94 0.93 0.78 0.57 0.58 0.66 0.82 0.92 0.97 0.98 0.94 0.94
0.33 0.31 0.30 0.30 0.30 0.32 0.32 0.29 0.28 0.30 0.33 0.37 0.42 0.47 0.51 0.55 0.64 0.78 0.98 1.16 1.44 1.50 1.44 1.47 1.48 1.43 1.49 1.38 1.26 1.17 1.01 0.85 0.79 0.79 0.73 0.70 0.65 0.64 0.67 0.71 0.83 0.89 0.90
Wind_Speed
8 9 10 11 11 12 12 13 13 13 13 13 13 14 14 14 14 14 13 12 13 13 13 13 13 14 14 14 14 15 16 16 17 17 17 17 16 16 15 14 13 13 12
10 10 10 11 12 12 12 12 12 12 12 12 13 13 13 13 13 12 12 13 13 13 13 13 14 14 14 15 15 16 16 17 17 18 17 16 15 14 14 12 12 11 11
10 10 11 11 12 12 11 11 11 11 11 12 12 12 13 12 12 11 12 12 12 12 13 13 14 14 15 16 16 16 17 17 17 17 16 14 13 12 11 10 10 10 10
11 11 11 11 11 11 11 11 11 11 11 11 12 12 12 12 11 11 11 11 12 12 13 13 14 14 15 16 16 16 16 17 16 14 13 12 11 10 9 9 9 9 9
10 11 11 11 11 11 11 10 10 10 10 11 11 11 11 11 11 11 11 11 11 12 12 13 14 14 15 15 16 15 15 14 12 11 10 9 8 8 8 7 7 7 7
10 10 10 10 10 10 10 10 9 9 10 10 11 11 10 11 11 11 11 11 11 12 12 13 14 15 15 15 15 14 13 11 9 8 7 7 6 6 6 6 6 6 6
10 10 9 9 9 9 9 8 8 8 8 9 9 9 10 10 10 10 11 11 12 13 13 14 14 14 14 13 13 12 10 8 7 6 7 5 5 5 5 5 4 4 4
10 9 8 8 8 8 8 7 7 7 6 7 7 7 8 8 9 9 10 10 11 12 12 12 12 12 11 10 10 8 7 5 5 4 6 5 4 4 4 3 3 3 3
8 7 7 7 6 6 6 6 6 5 5 5 5 5 6 6 7 7 8 9 9 10 10 10 10 9 9 8 7 6 5 4 4 3 6 4 4 3 3 3 3 3 3
5 5 5 5 5 5 4 5 5 5 4 4 4 4 4 4 5 5 6 7 7 8 8 8 8 8 7 6 5 5 5 5 4 3 5 5 4 3 3 4 4 3 3
2 2 2 3 3 3 3 3 4 4 4 4 4 4 4 4 4 5 5 5 6 6 7 7 7 7 7 6 6 6 6 6 5 4 5 7 6 4 4 5 5 6 6
0 0 2 2 2 3 3 3 4 4 5 5 5 5 5 5 5 5 6 6 6 7 7 8 8 8 8 8 8 8 8 8 7 6 6 8 8 7 7 8 8 8 9
5 3 2 4 4 4 4 4 5 5 6 7 7 7 7 7 7 7 8 8 8 9 9 10 10 11 11 10 10 10 11 11 11 10 9 11 11 11 10 11 11 11 10
9 7 6 5 6 7 7 7 6 6 7 8 9 10 10 10 10 10 10 11 11 11 12 12 13 13 13 14 13 14 14 14 14 14 12 13 13 13 12 12 12 12 12
9 12 10 9 8 8 9 10 9 8 8 9 10 11 12 13 13 13 13 14 14 14 14 15 16 16 16 17 17 17 17 17 17 17 17 16 15 15 15 14 14 14 14
8 10 13 13 12 11 11 12 12 12 12 11 12 12 13 14 15 16 17 17 17 18 17 17 18 19 19 19 20 20 21 21 21 20 21 20 20 19 18 17 17 17 17
10 10 11 12 15 15 14 14 15 14 15 15 15 16 16 16 16 17 18 20 20 21 21 21 21 21 21 22 23 23 23 23 24 24 24 24 24 23 23 22 20 20 20
11 11 12 12 13 15 17 18 18 19 18 18 18 19 19 20 20 20 20 21 23 23 24 24 24 25 25 24 25 25 25 26 26 26 26 27 27 27 26 26 25 24 23
12 12 13 14 15 16 17 19 18 19 21 23 23 23 23 24 25 24 24 24 25 25 26 27 27 28 28 28 28 28 28 28 28 29 29 29 29 29 28 28 28 27 26
10 12 13 14 16 17 19 20 21 22 23 22 23 25 27 27 28 29 29 28 28 28 29 30 30 31 31 31 31 31 31 31 31 31 31 31 31 31 31 30 29 28 28
11 12 14 15 17 19 20 22 24 24 24 25 26 26 29 30 28 32 32 33 32 32 31 32 33 33 33 33 33 33 34 34 34 33 33 34 34 33 34 33 32 32 31
11 12 13 14 16 17 19 21 23 25 26 27 28 28 29 29 31 32 33 35 36 37 37 36 35 35 36 35 35 33 33 34 35 36 37 36 36 36 36 35 35 34 33
11 12 13 15 16 18 19 20 22 23 26 28 30 31 32 32 33 32 34 35 36 39 40 40 39 39 39 38 38 37 32 33 32 34 36 38 39 39 38 37 37 36 35
12 13 14 15 17 19 20 21 22 24 26 28 30 32 33 35 35 36 37 38 39 40 40 41 43 43 42 42 41 43 44 39 35 34 34 35 36 38 38 38 37 37 36
12 13 14 15 17 18 20 21 23 24 26 28 30 32 34 37 38 39 39 39 43 43 42 44 43 47 46 46 45 45 45 45 44 43 41 39 40 39 38 39 40 40 40
13 14 15 16 17 19 20 21 22 23 26 28 31 32 34 36 38 40 42 42 41 39 43 44 44 47 49 51 49 48 48 47 45 45 45 45 45 45 45 45 45 44 43
Wind_Direction
89 96 103 108 110 107 101 100 101 99 94 92 93 96 99 101 101 101 102 103 106 111 113 113 116 121 120 120 120 119 119 118 116 117 116 115 114 114 112 110 109 108 107
99 100 106 111 114 111 107 103 102 99 95 95 96 99 101 102 102 101 102 105 108 112 114 115 117 119 120 121 121 120 120 120 119 117 116 114 113 113 113 111 110 110 110
100 103 107 113 117 114 112 107 103 99 96 96 99 101 102 102 102 101 103 107 109 113 115 116 118 120 121 122 123 122 121 121 121 118 117 115 114 113 113 112 111 112 113
105 105 109 114 119 118 115 111 106 100 97 97 99 102 102 102 102 103 105 109 111 114 117 117 120 121 123 124 125 123 123 124 123 120 117 118 117 114 113 113 115 116 116
105 106 109 115 119 120 118 117 111 103 98 97 100 103 102 101 101 104 106 110 115 119 122 122 123 124 125 127 127 127 126 126 127 125 121 119 118 119 118 118 119 120 119
102 106 109 114 120 123 122 122 118 108 102 100 100 103 104 101 101 104 106 110 115 119 122 123 125 126 127 129 129 129 128 127 127 127 136 127 122 125 124 124 124 122 123
98 104 106 113 120 124 125 126 125 118 108 105 104 104 105 104 104 105 108 112 117 120 122 125 126 128 129 131 133 134 133 131 131 128 144 137 135 134 134 135 133 134 134
94 99 104 109 119 126 130 130 130 129 124 116 113 111 111 109 107 109 113 117 121 125 128 132 134 134 136 139 143 145 145 142 144 147 162 145 148 156 156 154 150 146 145
92 97 100 108 118 129 136 139 140 139 137 135 132 128 127 123 119 118 121 126 131 135 138 142 145 147 150 153 158 165 166 164 160 159 174 174 171 178 180 176 172 172 178
86 100 105 108 115 131 145 153 156 158 157 155 154 153 152 152 148 143 140 142 147 151 156 160 163 166 169 174 181 191 197 192 188 186 205 206 194 195 200 205 209 218 232
79 90 137 132 133 141 157 175 181 184 185 185 184 183 184 184 183 181 177 173 173 176 180 184 188 192 197 203 209 214 215 212 222 239 243 214 218 229 234 234 239 246 254
175 211 219 211 205 195 198 202 210 216 216 214 213 213 212 211 210 210 210 208 205 206 207 208 211 216 221 226 231 232 230 231 240 250 251 223 237 248 252 251 254 258 262
239 248 257 243 238 237 239 233 235 237 238 238 236 233 231 230 229 229 228 226 228 228 229 230 231 233 236 240 242 241 241 245 247 252 251 240 249 255 259 257 257 259 263
240 247 253 261 253 250 246 246 253 254 251 250 248 246 245 243 241 240 240 239 241 242 242 242 242 243 245 247 249 248 249 251 252 253 255 252 253 255 257 257 256 258 262
267 248 251 255 259 264 254 253 256 261 260 256 255 253 252 252 251 251 248 248 248 248 250 249 249 250 251 252 253 253 253 254 255 254 255 254 254 254 256 258 259 260 263
295 266 254 253 258 262 267 256 261 261 264 263 260 261 257 258 257 256 254 255 254 252 253 255 254 255 256 256 256 256 256 256 257 256 255 254 254 255 256 258 260 261 263
296 279 271 263 258 262 265 263 261 265 263 266 264 262 261 262 262 260 261 258 259 257 257 258 257 257 258 258 258 258 258 258 257 257 256 254 254 255 256 258 260 261 264
285 286 275 274 265 267 266 264 266 263 266 268 266 266 264 263 263 264 264 263 262 260 259 259 259 259 258 259 259 259 259 259 259 258 257 256 255 255 256 257 259 261 263
284 283 280 277 273 274 270 267 269 268 268 267 267 266 266 265 263 263 265 264 263 263 261 261 260 260 259 260 261 261 260 260 260 259 258 257 256 256 257 258 259 260 261
291 285 283 281 280 279 275 271 270 270 268 272 270 268 268 266 265 264 264 265 264 265 263 262 261 260 261 262 262 262 262 261 260 259 258 258 257 256 256 257 259 260 261
298 297 291 289 289 283 282 279 273 274 272 271 272 275 270 269 271 265 265 264 264 264 264 263 262 262 262 262 263 263 263 262 260 259 259 258 257 257 256 257 258 260 261
307 302 301 299 296 294 288 284 277 274 273 272 274 274 273 274 270 270 267 265 263 263 263 263 263 262 262 261 261 263 265 264 261 260 259 258 258 258 257 257 258 259 260
311 308 304 302 300 299 296 291 287 280 279 276 277 275 273 275 272 271 269 268 267 265 264 262 262 262 262 261 260 260 263 263 265 263 260 259 258 258 257 257 257 258 258
313 312 310 309 307 303 301 297 295 289 285 283 281 277 276 275 274 274 272 271 267 266 268 265 262 262 261 261 260 259 259 262 264 266 263 261 259 257 257 257 256 256 257
317 318 316 314 314 310 308 304 299 296 292 288 285 283 280 277 276 274 273 275 270 267 268 266 266 261 260 261 259 259 260 260 261 262 264 263 261 259 259 258 257 257 257
316 317 318 316 316 315 313 312 310 306 301 296 292 289 286 283 279 276 274 273 272 271 269 268 268 265 262 260 260 259 259 259 260 261 262 262 262 261 261 259 259 259 259